| time (UTC) | temp F | wind direction | speed MPH | gust MPH | rain 1hr in | rain 24hr in | rain mn in | humidity % | barometer mb |
| 20260504174959 | 41 | 0 | 0.0 | 0.0 | 0.00 | 0.16 | 0.00 | 78 | 1012.9 |
| 20260504173501 | 41 | 0 | 0.0 | 0.0 | 0.00 | 0.17 | 0.00 | 77 | 1012.7 |
| 20260504172000 | 42 | 0 | 0.0 | 0.0 | 0.00 | 0.18 | 0.00 | 74 | 1012.6 |
| 20260504170500 | 43 | 0 | 0.0 | 0.0 | 0.00 | 0.20 | 0.00 | 71 | 1012.6 |
| 20260504150500 | 47 | 0 | 0.0 | 0.0 | 0.00 | 0.22 | 0.00 | 60 | 1010.6 |
| 20260504140459 | 51 | 0 | 0.0 | 0.0 | 0.00 | 0.22 | 0.22 | 48 | 1009.4 |
| 20260504130500 | 53 | 0 | 0.0 | 0.0 | 0.00 | 0.23 | 0.22 | 45 | 1007.9 |
| 20260504110500 | 56 | 0 | 0.0 | 0.0 | 0.00 | 0.24 | 0.22 | 50 | 1004.5 |
| 20260504100500 | 59 | 0 | 0.0 | 0.0 | 0.00 | 0.27 | 0.22 | 41 | 1003.0 |
| 20260504081959 | 66 | 0 | 0.0 | 0.0 | 0.00 | 0.27 | 0.22 | 33 | 1000.3 |
| 20260504080500 | 67 | 0 | 0.0 | 0.0 | 0.00 | 0.27 | 0.22 | 36 | 999.9 |
| 20260504050500 | 76 | 0 | 0.0 | 0.0 | 0.00 | 0.27 | 0.22 | 25 | 995.6 |
| 20260504044959 | 78 | 0 | 0.0 | 0.0 | 0.00 | 0.27 | 0.22 | 25 | 996.1 |
| 20260504043500 | 77 | 0 | 0.0 | 0.0 | 0.00 | 0.27 | 0.22 | 27 | 995.9 |
| 20260504042000 | 78 | 0 | 0.0 | 0.0 | 0.00 | 0.27 | 0.22 | 22 | 995.9 |
| 20260504040459 | 77 | 0 | 0.0 | 0.0 | 0.00 | 0.27 | 0.22 | 23 | 995.8 |
| 20260504035000 | 78 | 0 | 0.0 | 0.0 | 0.00 | 0.27 | 0.22 | 27 | 995.9 |
| 20260504033500 | 79 | 0 | 0.0 | 0.0 | 0.00 | 0.27 | 0.22 | 27 | 996.0 |
| 20260504031959 | 78 | 0 | 0.0 | 0.0 | 0.00 | 0.27 | 0.22 | 29 | 995.9 |
| 20260504030459 | 79 | 0 | 0.0 | 0.0 | 0.00 | 0.27 | 0.22 | 36 | 995.9 |
| 20260504025001 | 79 | 0 | 0.0 | 0.0 | 0.00 | 0.27 | 0.22 | 28 | 996.2 |
| 20260504023500 | 78 | 0 | 0.0 | 0.0 | 0.00 | 0.27 | 0.22 | 32 | 996.2 |
| 20260504022000 | 77 | 0 | 0.0 | 0.0 | 0.00 | 0.27 | 0.22 | 34 | 996.5 |
| 20260504020459 | 77 | 0 | 0.0 | 0.0 | 0.00 | 0.27 | 0.22 | 33 | 996.4 |
| 20260504015000 | 77 | 0 | 0.0 | 0.0 | 0.00 | 0.27 | 0.22 | 34 | 996.6 |
| 20260504013500 | 78 | 0 | 0.0 | 0.0 | 0.00 | 0.27 | 0.22 | 38 | 996.7 |
| 20260504011959 | 78 | 0 | 0.0 | 0.0 | 0.00 | 0.27 | 0.22 | 54 | 996.6 |
| 20260504010500 | 76 | 0 | 0.0 | 0.0 | 0.00 | 0.27 | 0.22 | 54 | 996.9 |
| 20260504005000 | 75 | 0 | 0.0 | 0.0 | 0.00 | 0.27 | 0.22 | 62 | 996.7 |
| 20260504003459 | 72 | 0 | 0.0 | 0.0 | 0.00 | 0.27 | 0.22 | 67 | 996.9 |
| 20260504002000 | 72 | 0 | 0.0 | 0.0 | 0.00 | 0.27 | 0.22 | 72 | 997.1 |
| 20260504000500 | 70 | 0 | 0.0 | 0.0 | 0.00 | 0.27 | 0.22 | 73 | 997.4 |
| 20260503235000 | 68 | 0 | 0.0 | 0.0 | 0.00 | 0.27 | 0.22 | 75 | 997.7 |
| 20260503233459 | 66 | 0 | 0.0 | 0.0 | 0.00 | 0.27 | 0.22 | 81 | 997.8 |
| 20260503231959 | 64 | 0 | 0.0 | 0.0 | 0.00 | 0.27 | 0.22 | 85 | 997.7 |
| 20260503230500 | 63 | 0 | 0.0 | 0.0 | 0.00 | 0.27 | 0.22 | 87 | 997.5 |
| 20260503225000 | 60 | 0 | 0.0 | 0.0 | 0.00 | 0.27 | 0.22 | 88 | 997.7 |
| 20260503223459 | 61 | 0 | 0.0 | 0.0 | 0.00 | 0.27 | 0.22 | 89 | 998.2 |
| 20260503221959 | 60 | 0 | 0.0 | 0.0 | 0.00 | 0.27 | 0.22 | 90 | 998.1 |
| 20260503220501 | 59 | 0 | 0.0 | 0.0 | 0.00 | 0.27 | 0.22 | 92 | 998.4 |
| 20260503215000 | 58 | 0 | 0.0 | 0.0 | 0.00 | 0.27 | 0.22 | 93 | 998.0 |
| 20260503213459 | 58 | 0 | 0.0 | 0.0 | 0.00 | 0.27 | 0.22 | 95 | 998.1 |
| 20260503212000 | 57 | 0 | 0.0 | 0.0 | 0.01 | 0.27 | 0.22 | 95 | 998.4 |
| 20260503210500 | 56 | 0 | 0.0 | 0.0 | 0.03 | 0.27 | 0.22 | 94 | 998.3 |
| 20260503204959 | 55 | 0 | 0.0 | 0.0 | 0.10 | 0.27 | 0.22 | 95 | 998.7 |
| 20260503203501 | 55 | 0 | 0.0 | 0.0 | 0.11 | 0.25 | 0.21 | 95 | 998.6 |
| 20260503202000 | 55 | 0 | 0.0 | 0.0 | 0.10 | 0.24 | 0.20 | 95 | 998.6 |
| 20260503200459 | 55 | 0 | 0.0 | 0.0 | 0.09 | 0.22 | 0.17 | 95 | 998.4 |
| 20260503195001 | 55 | 0 | 0.0 | 0.0 | 0.02 | 0.15 | 0.10 | 95 | 998.4 |
| 20260503193500 | 55 | 0 | 0.0 | 0.0 | 0.01 | 0.14 | 0.09 | 95 | 998.5 |
| 20260503191959 | 55 | 0 | 0.0 | 0.0 | 0.02 | 0.14 | 0.09 | 95 | 998.6 |
| 20260503190500 | 55 | 0 | 0.0 | 0.0 | 0.01 | 0.12 | 0.08 | 95 | 998.8 |
| 20260503185000 | 55 | 0 | 0.0 | 0.0 | 0.02 | 0.12 | 0.08 | 94 | 998.8 |
| 20260503183459 | 55 | 0 | 0.0 | 0.0 | 0.03 | 0.12 | 0.08 | 94 | 999.3 |
| 20260503182000 | 55 | 0 | 0.0 | 0.0 | 0.03 | 0.11 | 0.07 | 94 | 999.6 |
| 20260503180500 | 55 | 0 | 0.0 | 0.0 | 0.04 | 0.11 | 0.07 | 94 | 999.7 |